Ruston, LA

12:08 PM CST on November 20, 2017 (GMT -0600)
Ruston Regional

Weather History for KRSN - April, 2014

Change the Weather History Date:

Wednesday, April 9, 2014

  Actual Average Record
Temperature  
Mean Temperature 54 °F -  
Max Temperature 72 °F 74 °F 91 °F (1930)
Min Temperature 36 °F 48 °F 35 °F (1938)
Degree Days  
Heating Degree Days 11    
Growing Degree Days 4 (Base 50)    
Moisture  
Dew Point 39 °F    
Average Humidity 62    
Maximum Humidity 100    
Minimum Humidity 23    
Precipitation  
Precipitation 0.00 in - - ()
Sea Level Pressure  
Sea Level Pressure 30.22 in    
Wind  
Wind Speed 1 mph (WNW)    
Max Wind Speed 8 mph    
Max Gust Speed 16 mph    
Visibility 10 miles    
Events      
Averages and records for this station are not official NWS values.
T = Trace of Precipitation, MM = Missing Value Source: NWS Daily Summary

Daily Weather History Graph

Daily Weather History Graph

Search for Another Location

Airport or City:

Trip Planner

Search our weather history database for the weather conditions in past years. The results will help you decide how hot, cold, wet, or windy it might be!

Date:

Astronomy

Apr. 09, 2014 Rise Set
Actual Time 6:48 AM CDT 7:35 PM CDT
Civil Twilight 6:23 AM CDT 8:00 PM CDT
Nautical Twilight 5:53 AM CDT 8:30 PM CDT
Astronomical Twilight 5:23 AM CDT 9:00 PM CDT
Moon 2:40 PM CDT (4/9) 3:20 AM CDT (4/9)
Length of Visible Light 13h 37m
Length of Day
12h 47m
Waxing Gibbous, 72% of the Moon is Illuminated
Apr 9
Waxing Gibbous
Apr 15
Full
Apr 22
Last Quarter
Apr 29
New
May 6
First Quarter

Hourly Weather History & Observations

Time (CDT) Temp. Windchill Dew Point Humidity Pressure Visibility Wind Dir Wind Speed Gust Speed Precip Events Conditions
12:15 AM 44.6 °F 43.1 °F 42.6 °F 93% 30.17 in 10.0 mi NW 3.5 mph - N/A   Clear
12:35 AM 44.8 °F - 42.1 °F 90% 30.18 in 10.0 mi Calm Calm - N/A   Clear
12:55 AM 42.4 °F - 42.1 °F 99% 30.18 in 10.0 mi Calm Calm - N/A   Clear
1:15 AM 43.0 °F - 42.1 °F 97% 30.18 in 10.0 mi Calm Calm - N/A   Clear
1:35 AM 43.7 °F - 41.0 °F 90% 30.18 in 10.0 mi Calm Calm - N/A   Clear
1:55 AM 41.0 °F - 41.0 °F 100% 30.18 in 10.0 mi Calm Calm - N/A   Clear
2:15 AM 41.9 °F - 41.7 °F 99% 30.18 in 10.0 mi Calm Calm - N/A   Clear
2:35 AM 40.6 °F - 40.6 °F 100% 30.19 in 10.0 mi Calm Calm - N/A   Clear
2:55 AM 40.3 °F - 40.3 °F 100% 30.19 in 10.0 mi Calm Calm - N/A   Clear
3:15 AM 40.3 °F - 40.3 °F 100% 30.19 in 10.0 mi Calm Calm - N/A   Clear
3:35 AM 40.1 °F - 39.7 °F 99% 30.19 in 10.0 mi Calm Calm - N/A   Clear
3:55 AM 38.7 °F - 38.7 °F 100% 30.19 in 10.0 mi Calm Calm - N/A   Clear
4:15 AM 38.7 °F - 38.7 °F 100% 30.19 in 10.0 mi Calm Calm - N/A   Clear
4:35 AM 38.3 °F - 38.3 °F 100% 30.19 in 10.0 mi Calm Calm - N/A   Clear
4:55 AM 38.5 °F - 38.5 °F 100% 30.19 in 10.0 mi Calm Calm - N/A   Clear
5:15 AM 37.4 °F - 37.4 °F 100% 30.20 in 10.0 mi Calm Calm - N/A   Clear
5:35 AM 36.5 °F - 36.5 °F 100% 30.21 in 10.0 mi Calm Calm - N/A   Clear
5:55 AM 41.7 °F - 40.1 °F 94% 30.22 in 10.0 mi Calm Calm - N/A   Clear
6:15 AM 38.7 °F - 37.9 °F 97% 30.22 in 10.0 mi Calm Calm - N/A   Clear
6:35 AM 37.4 °F - 37.4 °F 100% 30.22 in 10.0 mi Calm Calm - N/A   Clear
6:55 AM 36.7 °F - 36.7 °F 100% 30.24 in 10.0 mi Calm Calm - N/A   Clear
7:15 AM 36.5 °F - 36.5 °F 100% 30.25 in 10.0 mi Calm Calm - N/A   Clear
7:35 AM 38.5 °F - 38.5 °F 100% 30.25 in 10.0 mi Calm Calm - N/A   Clear
7:55 AM 41.9 °F - 41.9 °F 100% 30.26 in 10.0 mi Calm Calm - N/A   Clear
8:15 AM 45.3 °F - 45.1 °F 99% 30.27 in 10.0 mi Calm Calm - N/A   Clear
8:35 AM 49.3 °F - 46.8 °F 91% 30.28 in 10.0 mi Calm Calm - N/A   Clear
8:55 AM 53.1 °F - 45.1 °F 74% 30.28 in 10.0 mi Calm Calm - N/A   Clear
9:15 AM 56.5 °F - 44.8 °F 65% 30.29 in 10.0 mi WNW 3.5 mph - N/A   Clear
9:35 AM 57.7 °F - 42.1 °F 56% 30.29 in 10.0 mi Calm Calm - N/A   Clear
9:55 AM 59.4 °F - 41.0 °F 51% 30.30 in 10.0 mi North 4.6 mph - N/A   Clear
10:15 AM 60.8 °F - 37.2 °F 42% 30.31 in 10.0 mi NNW 3.5 mph - N/A   Clear
10:35 AM 61.7 °F - 37.0 °F 40% 30.31 in 10.0 mi Calm Calm - N/A   Clear
10:55 AM 62.4 °F - 35.2 °F 36% 30.31 in 10.0 mi Calm Calm - N/A   Clear
11:15 AM 63.1 °F - 33.4 °F 33% 30.31 in 10.0 mi Calm Calm - N/A   Clear
11:35 AM 63.9 °F - 33.8 °F 33% 30.31 in 10.0 mi Calm Calm - N/A   Clear
11:55 AM 64.8 °F - 34.0 °F 32% 30.30 in 10.0 mi WNW 5.8 mph - N/A   Clear
12:15 PM 65.3 °F - 32.5 °F 29% 30.30 in 10.0 mi West 3.5 mph - N/A   Clear
12:35 PM 65.7 °F - 31.6 °F 28% 30.29 in 10.0 mi Calm Calm - N/A   Clear
12:55 PM 67.3 °F - 31.8 °F 27% 30.29 in 10.0 mi North 8.1 mph 16.1 mph N/A   Clear
1:15 PM 67.1 °F - 31.3 °F 26% 30.29 in 10.0 mi NW 4.6 mph - N/A   Clear
1:35 PM 67.5 °F - 32.2 °F 27% 30.28 in 10.0 mi SSW 5.8 mph - N/A   Clear
2:00 PM 68.4 °F - 32.7 °F 27% 30.27 in 10.0 mi NNW 3.5 mph - N/A   Clear
2:15 PM 69.1 °F - 34.2 °F 28% 30.26 in 10.0 mi WNW 3.5 mph - N/A   Clear
2:35 PM 69.1 °F - 32.2 °F 25% 30.25 in 10.0 mi SW 4.6 mph - N/A   Clear
2:55 PM 70.0 °F - 33.1 °F 26% 30.24 in 10.0 mi SSW 4.6 mph - N/A   Clear
3:15 PM 70.3 °F - 31.8 °F 24% 30.23 in 10.0 mi NW 6.9 mph - N/A   Clear
3:35 PM 70.2 °F - 32.5 °F 25% 30.22 in 10.0 mi Calm Calm - N/A   Clear
3:55 PM 71.6 °F - 33.8 °F 25% 30.21 in 10.0 mi West 3.5 mph - N/A   Clear
4:15 PM 71.4 °F - 32.0 °F 23% 30.20 in 10.0 mi Calm Calm - N/A   Clear
4:35 PM 71.6 °F - 32.5 °F 24% 30.19 in 10.0 mi Calm Calm - N/A   Clear
4:55 PM 71.6 °F - 32.2 °F 23% 30.19 in 10.0 mi SSW 6.9 mph - N/A   Clear
5:20 PM 72.0 °F - 32.5 °F 23% 30.18 in 10.0 mi North 3.5 mph - N/A   Clear
5:35 PM 72.0 °F - 33.1 °F 24% 30.18 in 10.0 mi Calm Calm - N/A   Clear
5:55 PM 71.8 °F - 31.6 °F 23% 30.17 in 10.0 mi Calm Calm - N/A   Clear
6:15 PM 71.6 °F - 33.3 °F 24% 30.17 in 10.0 mi Calm Calm - N/A   Clear
6:35 PM 70.9 °F - 35.6 °F 27% 30.16 in 10.0 mi Calm Calm - N/A   Clear
6:55 PM 68.7 °F - 38.3 °F 33% 30.16 in 10.0 mi Calm Calm - N/A   Clear
7:15 PM 65.8 °F - 40.5 °F 39% 30.16 in 10.0 mi Calm Calm - N/A   Clear
7:35 PM 62.1 °F - 44.1 °F 52% 30.16 in 7.0 mi Calm Calm - N/A   Clear
7:55 PM 60.3 °F - 44.8 °F 57% 30.17 in 10.0 mi Calm Calm - N/A   Clear
8:15 PM 57.2 °F - 45.3 °F 65% 30.17 in 10.0 mi Calm Calm - N/A   Clear
8:35 PM 55.4 °F - 45.1 °F 68% 30.18 in 10.0 mi Calm Calm - N/A   Clear
8:55 PM 55.9 °F - 44.2 °F 65% 30.18 in 10.0 mi Calm Calm - N/A   Clear
9:15 PM 56.1 °F - 43.9 °F 64% 30.18 in 10.0 mi Calm Calm - N/A   Clear
9:35 PM 56.1 °F - 43.0 °F 61% 30.19 in 10.0 mi Calm Calm - N/A   Clear
9:55 PM 55.2 °F - 44.1 °F 66% 30.19 in 10.0 mi Calm Calm - N/A   Clear
10:15 PM 55.0 °F - 43.9 °F 66% 30.19 in 10.0 mi Calm Calm - N/A   Clear
10:35 PM 54.5 °F - 43.7 °F 67% 30.19 in 10.0 mi Calm Calm - N/A   Clear
10:55 PM 55.2 °F - 42.8 °F 63% 30.19 in 10.0 mi Calm Calm - N/A   Clear
11:15 PM 54.5 °F - 42.8 °F 65% 30.19 in 10.0 mi Calm Calm - N/A   Clear
11:35 PM 52.9 °F - 44.1 °F 72% 30.18 in 10.0 mi Calm Calm - N/A   Clear
11:55 PM 53.6 °F - 43.3 °F 68% 30.19 in 10.0 mi Calm Calm - N/A   Clear